FW7513 Weather Reports


time (UTC)temp
F
wind
direction
speed
knots
gust
knots
rain 1hr
in
rain 24hr
in
rain mn
in
humidity
%
barometer
mb
20260509044232 56 88 0.0 0.0 0.00 0.00 0.00 84 1010.4
20260509043728 56 85 0.0 0.0 0.00 0.00 0.00 84 1010.6
20260509043224 56 85 0.0 0.0 0.00 0.00 0.00 84 1010.7
20260509042720 56 66 0.9 1.7 0.00 0.00 0.00 83 1010.9
20260509042217 56 85 0.0 0.0 0.00 0.00 0.00 83 1010.7
20260509041714 56 84 0.0 0.0 0.00 0.00 0.00 82 1010.7
20260509041211 56 84 0.0 0.0 0.00 0.00 0.00 82 1010.6
20260509040709 56 85 0.0 0.0 0.00 0.00 0.00 82 1010.9
20260509040206 56 85 0.0 0.0 0.00 0.00 0.00 82 1010.6
20260509035702 56 85 0.0 0.0 0.00 0.00 0.00 82 1010.7
20260509035159 56 85 0.0 0.0 0.00 0.00 0.00 81 1010.6
20260509034657 56 85 0.0 0.0 0.00 0.00 0.00 81 1010.5
20260509034154 56 86 0.0 0.0 0.00 0.00 0.00 81 1010.6
20260509033651 56 83 0.9 0.9 0.00 0.00 0.00 81 1010.6
20260509033148 56 87 0.0 0.9 0.00 0.00 0.00 80 1011.0
20260509032645 56 87 0.0 0.0 0.00 0.00 0.00 80 1010.9
20260509032142 56 91 0.0 0.0 0.00 0.00 0.00 80 1010.9
20260509031639 56 96 0.9 0.9 0.00 0.00 0.00 80 1011.1
20260509031136 57 103 0.0 0.0 0.00 0.00 0.00 80 1011.1
20260509030635 57 89 0.0 0.0 0.00 0.00 0.00 79 1011.1
20260509030132 57 107 0.9 0.9 0.00 0.00 0.00 78 1011.0
20260509025628 57 56 1.7 1.7 0.00 0.00 0.00 78 1010.9
20260509025124 57 65 1.7 1.7 0.00 0.00 0.00 77 1011.3
20260509024619 57 49 0.9 0.9 0.00 0.00 0.00 77 1011.4
20260509024115 57 75 1.7 1.7 0.00 0.00 0.00 77 1011.2
20260509023614 57 74 0.9 1.7 0.00 0.00 0.00 77 1011.1
20260509023110 58 76 0.9 0.9 0.00 0.00 0.00 76 1011.4
20260509022606 58 51 2.6 4.3 0.00 0.00 0.00 75 1011.2
20260509022105 59 49 2.6 2.6 0.00 0.00 0.00 73 1011.2
20260509021601 60 85 0.9 0.9 0.00 0.00 0.00 71 1010.9
20260509021058 60 59 1.7 1.7 0.00 0.00 0.00 68 1010.7
20260509020557 60 89 0.0 0.0 0.00 0.00 0.00 66 1010.6
20260509020053 61 90 0.0 0.0 0.00 0.00 0.00 65 1010.3
20260509015552 61 90 0.0 0.0 0.00 0.00 0.00 63 1010.4
20260509015049 61 90 0.0 0.0 0.00 0.00 0.00 61 1010.3
20260509014546 60 90 0.0 0.0 0.00 0.00 0.00 61 1010.1
20260509014042 61 90 0.0 0.0 0.00 0.00 0.00 63 1010.3
20260509013539 61 90 0.0 0.0 0.00 0.00 0.00 61 1010.2
20260509013034 61 90 0.0 0.0 0.00 0.00 0.00 61 1010.0
20260509012532 61 89 0.0 0.0 0.00 0.00 0.00 62 1010.4
20260509012028 62 89 0.0 0.0 0.00 0.00 0.00 60 1010.4
20260509011526 62 289 1.7 1.7 0.00 0.00 0.00 59 1010.5
20260509011023 62 38 0.9 0.9 0.00 0.00 0.00 59 1010.6
20260509010521 62 263 0.0 0.0 0.00 0.00 0.00 64 1010.6
20260509010017 62 103 0.0 0.0 0.00 0.00 0.00 58 1010.3
20260509005515 62 103 0.0 0.0 0.00 0.00 0.00 57 1010.3
20260509005016 63 103 0.0 0.0 0.00 0.00 0.00 56 1010.4
20260509004513 63 103 0.0 0.0 0.00 0.00 0.00 55 1010.2
20260509004009 63 103 0.0 0.0 0.00 0.00 0.00 53 1010.0
20260509003508 63 103 0.0 0.0 0.00 0.00 0.00 53 1010.1
20260509003004 63 103 0.0 0.0 0.00 0.00 0.00 52 1010.1
20260509002503 64 103 0.0 0.0 0.00 0.00 0.00 52 1009.9
20260509001959 64 103 0.0 0.0 0.00 0.00 0.00 52 1009.9
20260509001456 64 103 0.0 0.0 0.00 0.00 0.00 52 1009.9
20260509000952 64 103 0.0 0.0 0.00 0.00 0.00 52 1010.2
20260509000451 64 113 0.0 0.0 0.00 0.00 0.00 52 1010.2
20260508235946 64 113 0.0 0.0 0.00 0.00 0.00 54 1010.3
20260508235444 64 113 0.0 0.0 0.00 0.00 0.00 53 1010.1
20260508234941 65 113 0.0 0.0 0.00 0.00 0.00 51 1009.9
20260508234438 65 113 0.0 0.0 0.00 0.00 0.00 50 1010.2
20260508233935 65 113 0.0 0.0 0.00 0.00 0.00 50 1009.9
20260508233435 65 113 0.0 0.0 0.00 0.00 0.00 50 1009.8
20260508232931 65 113 0.0 0.0 0.00 0.00 0.00 51 1009.8
20260508232428 65 113 0.0 0.0 0.00 0.00 0.00 51 1009.8
20260508231925 65 114 0.0 0.0 0.00 0.00 0.00 51 1010.0
20260508231422 65 114 0.0 0.0 0.00 0.00 0.00 52 1010.2
20260508230919 65 114 0.0 0.0 0.00 0.00 0.00 52 1010.2
20260508230415 65 114 0.0 0.0 0.00 0.00 0.00 51 1010.2
20260508225913 65 96 0.0 0.0 0.00 0.00 0.00 52 1010.1
20260508225409 66 95 0.0 0.0 0.00 0.00 0.00 52 1010.0
20260508224907 66 95 0.0 0.0 0.00 0.00 0.00 50 1010.0
20260508224404 66 107 0.0 0.9 0.00 0.00 0.00 48 1009.8
20260508223902 66 114 0.0 0.0 0.00 0.00 0.00 50 1009.8
20260508223400 66 115 0.0 0.9 0.00 0.00 0.00 48 1009.8
20260508222857 66 106 0.0 0.0 0.00 0.00 0.00 48 1009.8
20260508222354 67 103 0.0 0.9 0.00 0.00 0.00 47 1009.7
20260508221850 67 103 0.0 0.0 0.00 0.00 0.00 49 1009.6
20260508221346 67 93 0.0 0.9 0.00 0.00 0.00 48 1009.8
20260508220842 67 130 0.9 0.9 0.00 0.00 0.00 44 1009.8
20260508220339 68 13 2.6 4.3 0.00 0.00 0.00 45 1009.8
20260508215835 68 99 0.0 0.0 0.00 0.00 0.00 48 1009.7
20260508215332 68 112 0.0 0.0 0.00 0.00 0.00 44 1009.8
20260508214829 68 109 0.0 0.0 0.00 0.00 0.00 46 1009.6
20260508214326 68 131 0.9 0.9 0.00 0.00 0.00 44 1009.7
20260508213822 68 114 0.0 0.0 0.00 0.00 0.00 48 1009.6
20260508213319 68 114 0.0 0.0 0.00 0.00 0.00 48 1009.7
20260508212816 68 114 0.0 0.0 0.00 0.00 0.00 46 1009.7
20260508212312 68 108 0.0 0.9 0.00 0.00 0.00 43 1009.8
20260508211808 68 112 0.0 0.0 0.00 0.00 0.00 46 1009.8
20260508211304 68 122 0.9 0.9 0.00 0.00 0.00 46 1010.0
20260508210802 68 131 1.7 1.7 0.00 0.00 0.00 44 1009.9
20260508210258 68 106 0.0 0.0 0.00 0.00 0.00 48 1009.8
20260508205755 69 263 2.6 2.6 0.00 0.00 0.00 45 1010.2
20260508205251 68 98 0.0 0.0 0.00 0.00 0.00 46 1010.2
20260508204748 68 133 1.7 1.7 0.00 0.00 0.00 47 1010.7
20260508204244 68 57 1.7 1.7 0.00 0.00 0.00 41 1010.5
20260508203740 68 146 2.6 2.6 0.00 0.00 0.00 46 1010.5
20260508203237 68 108 0.9 0.9 0.00 0.00 0.00 47 1010.5
20260508202732 68 121 0.9 1.7 0.00 0.00 0.00 45 1010.7
20260508202230 69 274 3.5 4.3 0.00 0.00 0.00 44 1011.0
20260508201727 69 80 0.9 1.7 0.00 0.00 0.00 41 1010.9
20260508201223 68 109 0.9 1.7 0.00 0.00 0.00 42 1010.9
20260508200720 68 121 0.9 0.9 0.00 0.00 0.00 43 1011.1
20260508200217 68 258 1.7 1.7 0.00 0.00 0.00 44 1011.2
20260508195713 67 55 3.5 6.1 0.00 0.00 0.00 41 1011.0
20260508195209 67 145 1.7 2.6 0.00 0.00 0.00 44 1011.3
20260508194706 67 26 1.7 1.7 0.00 0.00 0.00 44 1011.4
20260508194203 67 132 0.9 0.9 0.00 0.00 0.00 46 1011.3
20260508193700 67 16 1.7 2.6 0.00 0.00 0.00 42 1011.2
20260508193157 67 84 1.7 1.7 0.00 0.00 0.00 44 1011.4
20260508192653 68 123 0.9 0.9 0.00 0.00 0.00 45 1011.4
20260508192151 68 160 2.6 2.6 0.00 0.00 0.00 46 1011.5
20260508191648 69 111 1.7 2.6 0.00 0.00 0.00 44 1011.4
20260508191144 69 93 0.9 0.9 0.00 0.00 0.00 45 1011.7
20260508190642 70 126 0.9 0.9 0.00 0.00 0.00 44 1011.7
20260508190138 70 359 2.6 2.6 0.00 0.00 0.00 42 1011.4
20260508185635 70 12 1.7 1.7 0.00 0.00 0.00 43 1011.5
20260508185132 71 288 3.5 5.2 0.00 0.00 0.00 39 1011.8
20260508184629 70 162 1.7 1.7 0.00 0.00 0.00 42 1011.8
20260508184126 71 248 4.3 5.2 0.00 0.00 0.00 40 1012.0
20260508183623 71 196 1.7 1.7 0.00 0.00 0.00 44 1011.9
20260508183119 70 277 2.6 2.6 0.00 0.00 0.00 43 1012.1
20260508182615 70 87 0.0 0.9 0.00 0.00 0.00 44 1012.1
20260508182112 69 160 1.7 2.6 0.00 0.00 0.00 42 1012.3
20260508181607 69 198 1.7 1.7 0.00 0.00 0.00 42 1012.5
20260508181105 70 221 2.6 2.6 0.00 0.00 0.00 40 1012.4
20260508180601 71 10 4.3 5.2 0.00 0.00 0.00 40 1012.5
20260508180058 71 280 3.5 4.3 0.00 0.00 0.00 42 1012.5
20260508175554 69 286 2.6 2.6 0.00 0.00 0.00 42 1012.6
20260508175052 70 138 1.7 1.7 0.00 0.00 0.00 45 1012.8
20260508174549 72 307 3.5 6.1 0.00 0.00 0.00 42 1012.6
20260508174046 72 246 3.5 4.3 0.00 0.00 0.00 45 1012.5
20260508173543 70 188 2.6 2.6 0.00 0.00 0.00 47 1012.8
20260508173038 69 163 0.9 1.7 0.00 0.00 0.00 44 1013.2
20260508172536 69 293 2.6 2.6 0.00 0.00 0.00 45 1013.0
20260508172033 68 68 1.7 1.7 0.00 0.00 0.00 46 1013.0
20260508171529 70 48 2.6 4.3 0.00 0.00 0.00 42 1013.1
20260508171026 70 283 3.5 4.3 0.00 0.00 0.00 41 1013.4
20260508170523 70 281 3.5 5.2 0.00 0.00 0.00 41 1013.0
20260508170020 69 248 3.5 5.2 0.00 0.00 0.00 42 1013.4
20260508165518 70 127 1.7 1.7 0.00 0.00 0.00 45 1013.6
20260508165014 69 101 0.9 1.7 0.00 0.00 0.00 51 1013.6
20260508164511 69 271 2.6 4.3 0.00 0.00 0.00 46 1013.8
20260508164007 68 255 2.6 4.3 0.00 0.00 0.00 46 1014.0
20260508163505 68 247 3.5 4.3 0.00 0.00 0.00 46 1013.9
20260508163001 69 293 3.5 4.3 0.00 0.00 0.00 47 1013.9
20260508162458 68 158 2.6 2.6 0.00 0.00 0.00 49 1014.1
20260508161955 68 113 1.7 1.7 0.00 0.00 0.00 53 1014.2
20260508161452 68 214 1.7 2.6 0.00 0.00 0.00 50 1014.2
20260508160949 68 335 3.5 6.1 0.00 0.00 0.00 46 1014.1
20260508160448 68 108 0.0 0.0 0.00 0.00 0.00 46 1014.2
20260508155944 67 265 3.5 4.3 0.00 0.00 0.00 45 1014.2
20260508155441 66 231 2.6 4.3 0.00 0.00 0.00 50 1014.4
20260508154938 66 285 2.6 5.2 0.00 0.00 0.00 49 1014.4
20260508154436 66 157 0.9 1.7 0.00 0.00 0.00 54 1014.3
20260508153932 66 69 1.7 2.6 0.00 0.00 0.00 49 1014.3
20260508153429 65 260 2.6 4.3 0.00 0.00 0.00 52 1014.7
20260508152925 65 258 2.6 4.3 0.00 0.00 0.00 51 1014.9
20260508152422 64 315 3.5 4.3 0.00 0.00 0.00 48 1014.8
20260508151919 64 236 2.6 2.6 0.00 0.00 0.00 49 1014.9
20260508151416 64 31 4.3 5.2 0.00 0.00 0.00 51 1015.0
20260508150912 65 263 4.3 6.1 0.00 0.00 0.00 49 1014.9
20260508150409 64 311 2.6 2.6 0.00 0.00 0.00 48 1014.8
20260508145905 63 275 5.2 6.1 0.00 0.00 0.00 48 1015.0
20260508145401 63 35 2.6 5.2 0.00 0.00 0.00 50 1014.8
20260508144858 62 218 2.6 4.3 0.00 0.00 0.00 52 1015.0
20260508144356 62 204 1.7 2.6 0.00 0.00 0.00 50 1015.1
20260508143853 62 297 2.6 4.3 0.00 0.00 0.00 50 1015.0
20260508143350 62 256 2.6 4.3 0.00 0.00 0.00 55 1015.0
20260508142847 61 253 2.6 4.3 0.00 0.00 0.00 53 1015.1
20260508142344 61 141 0.9 1.7 0.00 0.00 0.00 52 1015.1
20260508141840 60 154 1.7 1.7 0.00 0.00 0.00 50 1015.1
20260508141337 61 254 4.3 7.0 0.00 0.00 0.00 50 1015.3
20260508140835 60 102 0.0 0.9 0.00 0.00 0.00 54 1015.3
20260508140331 60 118 0.9 1.7 0.00 0.00 0.00 52 1015.1
20260508135827 60 116 0.9 0.9 0.00 0.00 0.00 55 1015.2
20260508135324 60 206 2.6 4.3 0.00 0.00 0.00 52 1015.2
20260508134820 59 302 3.5 5.2 0.00 0.00 0.00 52 1015.6
20260508134317 59 41 2.6 4.3 0.00 0.00 0.00 54 1015.2
20260508133813 59 93 0.9 1.7 0.00 0.00 0.00 54 1015.5
20260508133311 58 144 2.6 2.6 0.00 0.00 0.00 56 1015.5
20260508132808 58 269 3.5 4.3 0.00 0.00 0.00 52 1015.3
20260508132306 57 64 1.7 1.7 0.00 0.00 0.00 53 1015.4
20260508131802 57 279 3.5 5.2 0.00 0.00 0.00 52 1015.4
20260508131258 57 27 0.9 1.7 0.00 0.00 0.00 55 1015.4
20260508130754 57 323 1.7 1.7 0.00 0.00 0.00 53 1015.4
20260508130252 57 290 1.7 1.7 0.00 0.00 0.00 55 1015.4
20260508125748 56 32 2.6 2.6 0.00 0.00 0.00 53 1015.4
20260508125244 55 98 0.0 0.9 0.00 0.00 0.00 56 1015.3
20260508124742 55 267 2.6 4.3 0.00 0.00 0.00 55 1015.4
20260508124239 55 28 2.6 2.6 0.00 0.00 0.00 54 1015.2
20260508123737 54 115 1.7 1.7 0.00 0.00 0.00 55 1015.1
20260508123235 54 127 0.9 1.7 0.00 0.00 0.00 57 1015.2
20260508122731 54 123 0.9 0.9 0.00 0.00 0.00 57 1015.0
20260508122228 53 269 2.6 2.6 0.00 0.00 0.00 56 1015.1
20260508121726 53 229 2.6 4.3 0.00 0.00 0.00 57 1014.9
20260508121224 52 144 1.7 1.7 0.00 0.00 0.00 59 1015.1
20260508120721 52 137 1.7 1.7 0.00 0.00 0.00 61 1015.2
20260508120219 51 108 0.9 0.9 0.00 0.00 0.00 61 1015.1
20260508115716 51 100 0.9 1.7 0.00 0.00 0.00 61 1015.2
20260508115214 50 95 0.9 0.9 0.00 0.00 0.00 61 1015.1
20260508114710 50 97 0.0 0.0 0.00 0.00 0.00 64 1015.0
20260508114207 49 97 0.0 0.0 0.00 0.00 0.00 65 1014.8
20260508113703 49 91 0.9 1.7 0.00 0.00 0.00 63 1015.0
20260508113202 49 111 0.9 0.9 0.00 0.00 0.00 63 1014.8
20260508112657 49 113 0.0 0.0 0.00 0.00 0.00 64 1014.8
20260508112154 49 114 0.9 0.9 0.00 0.00 0.00 63 1014.7
20260508111651 49 114 0.9 0.9 0.00 0.00 0.00 63 1014.8
20260508111149 49 114 0.0 0.0 0.00 0.00 0.00 63 1014.7
20260508110646 49 113 0.0 0.0 0.00 0.00 0.00 64 1014.6
20260508110143 49 114 0.0 0.0 0.00 0.00 0.00 63 1014.4
20260508105638 49 104 0.9 1.7 0.00 0.00 0.00 62 1014.3
20260508105135 49 112 0.9 0.9 0.00 0.00 0.00 62 1014.6
20260508104632 49 116 0.9 0.9 0.00 0.00 0.00 62 1014.4
20260508104129 49 107 0.0 0.9 0.00 0.00 0.00 63 1014.6
20260508103626 49 105 0.0 0.0 0.00 0.00 0.00 62 1014.7
20260508103123 49 106 0.9 0.9 0.00 0.00 0.00 61 1014.4
20260508102620 50 101 0.9 0.9 0.00 0.00 0.00 62 1014.8
20260508102118 49 125 0.9 1.7 0.00 0.00 0.00 62 1014.6
20260508101615 49 122 0.0 0.9 0.00 0.00 0.00 62 1014.3
20260508101112 49 118 0.9 0.9 0.00 0.00 0.00 63 1014.2
20260508100610 49 117 0.0 0.9 0.00 0.00 0.00 63 1014.4
20260508100108 49 117 0.9 0.9 0.00 0.00 0.00 62 1014.7
20260508095604 49 120 0.9 0.9 0.00 0.00 0.00 62 1014.8
20260508095101 49 121 0.9 0.9 0.00 0.00 0.00 63 1014.6
20260508094558 49 122 0.9 0.9 0.00 0.00 0.00 63 1014.4
20260508094055 49 128 0.9 0.9 0.00 0.00 0.00 62 1014.7
20260508093552 49 128 0.9 0.9 0.00 0.00 0.00 63 1014.7
20260508093050 49 125 0.9 0.9 0.00 0.00 0.00 63 1014.6
20260508092547 49 123 0.9 0.9 0.00 0.00 0.00 63 1014.7
20260508092046 48 125 0.9 0.9 0.00 0.00 0.00 63 1014.6
20260508091542 48 116 0.9 0.9 0.00 0.00 0.00 64 1014.6
20260508091039 48 113 0.9 0.9 0.00 0.00 0.00 64 1014.4
20260508090537 48 101 0.9 0.9 0.00 0.00 0.00 63 1014.6
20260508090033 48 97 0.9 0.9 0.00 0.00 0.00 64 1014.8
20260508085530 48 89 0.9 1.7 0.00 0.00 0.00 63 1014.4
20260508085027 47 92 0.9 0.9 0.00 0.00 0.00 64 1014.3
20260508084524 47 92 0.9 0.9 0.00 0.00 0.00 65 1014.3
20260508084022 46 92 0.0 0.0 0.00 0.00 0.00 68 1014.7
20260508083519 46 92 0.0 0.0 0.00 0.00 0.00 68 1014.6
20260508083015 46 92 0.0 0.0 0.00 0.00 0.00 68 1014.4
20260508082511 46 92 0.0 0.0 0.00 0.00 0.00 68 1014.3
20260508082009 46 92 0.0 0.0 0.00 0.00 0.00 68 1014.3
20260508081506 46 92 0.0 0.0 0.00 0.00 0.00 68 1014.3
20260508081001 46 92 0.0 0.0 0.00 0.00 0.00 68 1014.4
20260508080500 46 92 0.0 0.0 0.00 0.00 0.00 67 1014.3
20260508075956 46 92 0.0 0.0 0.00 0.00 0.00 68 1014.2
20260508075453 46 92 0.0 0.0 0.00 0.00 0.00 68 1014.4
20260508074951 45 92 0.0 0.0 0.00 0.00 0.00 68 1014.3
20260508074449 45 92 0.0 0.0 0.00 0.00 0.00 69 1014.6
20260508073945 45 92 0.0 0.0 0.00 0.00 0.00 69 1014.6
20260508073443 45 92 0.0 0.0 0.00 0.00 0.00 69 1014.6
20260508072940 46 92 0.0 0.0 0.00 0.00 0.00 69 1014.6
20260508072436 45 92 0.0 0.0 0.00 0.00 0.00 69 1014.4
20260508071933 45 92 0.0 0.0 0.00 0.00 0.00 69 1014.4
20260508071431 45 92 0.0 0.0 0.00 0.00 0.00 70 1014.6
20260508070929 45 92 0.0 0.0 0.00 0.00 0.00 69 1014.4
20260508070426 46 92 0.0 0.0 0.00 0.00 0.00 68 1014.9
20260508065924 46 92 0.0 0.0 0.00 0.00 0.00 68 1014.9
20260508065422 46 92 0.0 0.0 0.00 0.00 0.00 68 1014.7
20260508064920 46 92 0.0 0.0 0.00 0.00 0.00 67 1014.7
20260508064416 46 92 0.0 0.0 0.00 0.00 0.00 66 1014.7
20260508063914 46 92 0.0 0.0 0.00 0.00 0.00 66 1015.0
20260508063412 46 92 0.0 0.0 0.00 0.00 0.00 67 1015.1
20260508062908 46 92 0.0 0.0 0.00 0.00 0.00 67 1015.0
20260508062401 46 92 0.0 0.0 0.00 0.00 0.00 66 1015.2
20260508061858 46 92 0.0 0.0 0.00 0.00 0.00 66 1015.3
20260508061355 46 92 0.0 0.0 0.00 0.00 0.00 66 1015.1
20260508060851 47 92 0.0 0.0 0.00 0.00 0.00 65 1015.4
20260508060349 47 92 0.0 0.0 0.00 0.00 0.00 66 1015.3
20260508055849 47 92 0.0 0.0 0.00 0.00 0.00 66 1015.4
20260508055342 47 92 0.0 0.0 0.00 0.00 0.00 65 1015.3
20260508054838 47 92 0.0 0.0 0.00 0.00 0.00 65 1015.3
20260508054336 47 92 0.0 0.0 0.00 0.00 0.00 64 1015.2
20260508053832 47 92 0.0 0.0 0.00 0.00 0.00 64 1015.2
20260508053330 47 92 0.0 0.0 0.00 0.00 0.00 65 1015.4
20260508052827 47 92 0.0 0.0 0.00 0.00 0.00 64 1015.3
20260508052324 47 92 0.0 0.0 0.00 0.00 0.00 64 1015.3
20260508051820 47 92 0.0 0.0 0.00 0.00 0.00 64 1015.2
20260508051316 47 92 0.0 0.0 0.00 0.00 0.00 65 1015.1
20260508050812 47 92 0.0 0.0 0.00 0.00 0.00 65 1015.1
20260508050310 47 92 0.0 0.0 0.00 0.00 0.00 65 1015.4
20260508045805 47 92 0.0 0.0 0.00 0.00 0.00 63 1015.0
20260508045306 48 92 0.0 0.0 0.00 0.00 0.00 62 1015.2
20260508044801 47 92 0.0 0.0 0.00 0.00 0.00 62 1015.1